OpenBCM V1.13 (Linux)

Packet Radio Mailbox

DB0FHN

[JN59NK Nuernberg]

 Login: GUEST





  
LU9DCE > KEP      20.08.19 19:00l 240 Lines 11921 Bytes #999 (0) @ WW
BID : 30226_LU9DCE
Read: DF7EAV DJ6UX GUEST
Subj: TLE 20 08
Path: DB0FHN<OE2XZR<OE1XAB<HG8LXL<XE1FH<LU9DCE
Sent: 190820/1600Z 30226@LU9DCE.TOR.BA.ARG.SOAM LinBPQ6.0.18

            __    _  _  ___  ____   ___  ____    ____  ____  ____
           (  )  / )( \/ _ \(    \ / __)(  __)  (  _ \(  _ \/ ___)
           / (_/\) \/ (\__  )) D (( (__  ) _)    ) _ ( ) _ (\___ \
           \____/\____/(___/(____/ \___)(____)  (____/(____/(____/
               ESTACION DE PACKET RADIO - BUENOS AIRES (GF05OM)
                   BOLETINES INFORMATIVOS PROGRAMADOS (BIP)
                  SLACKWARE LINUX - HELLOCODELINUX@GMAIL.COM
                          https://slacko.home.blog
+----------------------------------------------------------------------------+
OSCAR 7
1  7530U 74089B   19232.19244420 -.00000038  00000-0  45626-4 0  9995
2  7530 101.7492 199.2259 0011752 225.7552 204.9033 12.53639305 48350
OSCAR 11 (UoSAT 2)
1 14781U 84021B   19231.90571345 +.00000034 +00000-0 +10343-4 0  9998
2 14781 097.6084 253.6723 0009939 111.8977 248.3295 14.83100918886986
OSCAR 19 (LUSAT)
1 20442U 90005G   19232.09447361 -.00000006  00000-0  14233-4 0  9991
2 20442  98.6512 173.9999 0011224 330.9961  29.0598 14.32930847545315
EYESAT A
1 22825U 93061C   19232.18997746 -.00000025  00000-0  84422-5 0  9999
2 22825  98.9072 222.2645 0008491 169.6104 190.5254 14.30064474350881
ITAMSAT
1 22826U 93061D   19231.96723759 -.00000023  00000-0  89042-5 0  9997
2 22826  98.9011 222.0202 0009220 159.6598 200.4952 14.30398254351051
RADIO ROSTO
1 23439U 94085A   19231.86547283 -.00000052 +00000-0 -27276-3 0  9992
2 23439 064.8196 015.5794 0145960 101.1773 260.5598 11.27568620014900
JAS 2
1 24278U 96046B   19232.18170369 -.00000022  00000-0  10999-4 0  9997
2 24278  98.5464  17.1333 0351338  78.0407 285.9887 13.53092750136257
TECHSAT 1B
1 25397U 98043D   19232.09919232 -.00000015  00000-0  12463-4 0  9999
2 25397  98.6908 171.4956 0001043 157.7151 202.4073 14.23669106 96759
ISS (ZARYA)
1 25544U 98067A   19232.48367009  .00000420  00000-0  15221-4 0  9995
2 25544  51.6451  42.2927 0007326 304.6921 121.9010 15.50386951185239
PCSAT
1 26931U 01043C   19231.37471323 -.00000059 +00000-0 +93704-5 0  9998
2 26931 067.0499 204.5069 0007470 274.1812 085.8435 14.30549615933799
SAUDISAT 1C
1 27607U 02058C   19232.30588040 -.00000069  00000-0  11311-4 0  9999
2 27607  64.5534 218.1600 0078778 244.4881 114.8060 14.75565382896275
CUTE-1
1 27844U 03031E   19231.98665374  .00000015  00000-0  26383-4 0  9998
2 27844  98.6843 239.2690 0009241 204.5804 155.4934 14.22190087837143
CUBESAT XI 4
1 27848U 03031J   19231.99653989  .00000006  00000-0  22380-4 0  9995
2 27848  98.6920 239.7921 0008940 216.9077 143.1486 14.21783887836992
MOZHAYETS 4
1 27939U 03042A   19232.39833039  .00000079  00000-0  22687-4 0  9999
2 27939  98.0498   7.0218 0012168 223.7455 136.2803 14.66797160849735
CUBESAT XI 5
1 28895U 05043F   19231.92299393 +.00000079 +00000-0 +24022-4 0  9996
2 28895 097.9679 012.5505 0017535 151.3266 208.8904 14.63682995736352
CUTE-1.7+APD II
1 32785U 08021C   19232.54689075  .00000110  00000-0  17518-4 0  9995
2 32785  97.5518 229.3034 0014462  58.2421 302.0204 14.88332200613039
DELFI C3
1 32789U 08021G   19231.90002384 +.00000612 +00000-0 +44822-4 0  9995
2 32789 097.4596 279.6752 0010522 272.5872 087.4151 15.07052553616239
SEEDS
1 32791U 08021J   19231.58690800 +.00000076 +00000-0 +13032-4 0  9991
2 32791 097.5291 234.4227 0014337 037.5998 322.6220 14.90851468613250
YUBELEINY
1 32953U 08025A   19232.42200063  .00000020  00000-0  75656-4 0  9996
2 32953  82.5002 105.7588 0019494 355.0665   5.0222 12.43090763510105
PRISM (HITOMI)
1 33493U 09002B   19232.37299184 -.00000122  00000-0 -50439-5 0  9996
2 33493  98.1199 155.7044 0014955 340.7673  19.2981 14.96701254574523
KKS-1 (KISEKI)
1 33499U 09002H   19232.20169227  .00000037  00000-0  13576-4 0  9991
2 33499  98.3471  72.8922 0009502  15.7302 344.4200 14.75455564568446
SWISSCUBE
1 35932U 09051B   19231.98346711  .00000067  00000-0  26118-4 0  9997
2 35932  98.5942  39.7998 0007151 343.6445  16.4520 14.56300977525843
BEESAT
1 35933U 09051C   19232.05137829  .00000057  00000-0  23935-4 0  9998
2 35933  98.5965  41.6554 0005660   0.0656   0.0541 14.56388152525966
ITUPSAT 1
1 35935U 09051E   19232.14504606  .00000038  00000-0  19869-4 0  9991
2 35935  98.6076  41.9853 0007870 353.6009   6.5085 14.55545831525727
XIWANG-1 (HOPE-1)
1 36122U 09072B   19231.75553588 -.00000017 +00000-0 +65296-4 0  9995
2 36122 100.0742 231.2236 0006746 205.1802 154.8951 13.16350860465045
TISAT 1
1 36799U 10035E   19232.42514691  .00000160  00000-0  22279-4 0  9995
2 36799  98.1638  26.6865 0011123 236.4965 123.5190 14.91135831494113
JUGNU
1 37839U 11058B   19232.54223663  .00000306  00000-0  21086-4 0  9993
2 37839  19.9618 313.6474 0018823 300.4559 182.6803 14.12655920406151
SRMSAT
1 37841U 11058D   19231.68898361  .00000284  00000-0  10786-4 0  9993
2 37841  19.9734  16.8752 0011817 157.6244 313.8281 14.10636442405459
M-CUBED/EXP-1 PRIME
1 37855U 11061F   19232.40424758  .00000563  00000-0  36412-4 0  9992
2 37855 101.7100 160.1903 0173026 250.8902 107.3506 15.05538637426215
HORYU 2
1 38340U 12025D   19231.68376820  .00000087  00000-0  20674-4 0  9992
2 38340  98.3247 272.1201 0010176 288.6533  71.3570 14.75738388390300
STRAND 1
1 39090U 13009E   19232.18746281  .00000008  00000-0  18080-4 0  9997
2 39090  98.4836  77.0818 0010347 101.4306 258.8042 14.35093510339355
SOMP
1 39134U 13015E   19231.92174386 +.00000789 +00000-0 +45203-4 0  9998
2 39134 064.8629 178.8089 0034331 293.9446 065.8087 15.20256245349674
BEESAT 3
1 39135U 13015F   19232.21807471  .00000529  00000-0  36002-4 0  9999
2 39135  64.8685 197.0316 0029812 307.1419  52.6984 15.17548411349731
BEESAT 2
1 39136U 13015G   19232.21285259  .00000414  00000-0  30834-4 0  9994
2 39136  64.8674 201.0510 0022317 303.6336  56.2661 15.16964420349658
CUBEBUG 1
1 39153U 13018D   19232.27690169  .00000089  00000-0  18553-4 0  9994
2 39153  97.9803 330.0564 0016802   0.7624 359.3610 14.80583970341073
ZACUBE
1 39417U 13066B   19232.53369324  .00000099  00000-0  18849-4 0  9994
2 39417  97.5623 242.5041 0058747 186.4395 173.6070 14.81136266310346
TRITON 1
1 39427U 13066M   19232.10168921  .00000155  00000-0  32924-4 0  9991
2 39427  97.6818 205.6405 0113036 326.3698  33.0369 14.67865949307495
GOMX 1
1 39430U 13066Q   19232.50076273  .00000096  00000-0  26139-4 0  9992
2 39430  97.7515 184.9326 0152407  56.4486 305.1161 14.59271251305765
HUMSAT D
1 39433U 13066T   19232.11043434  .00000033  00000-0  85741-5 0  9991
2 39433  97.5488 277.0501 0032420  92.5780 267.9151 14.92227831312386
CUBEBUG 2
1 39440U 13066AA  19232.53219666  .00000108  00000-0  22178-4 0  9994
2 39440  97.6049 227.2678 0078813 240.3508 118.9837 14.75874441309240
FUNCUBE 1
1 39444U 13066AE  19231.82431003  .00000145  00000-0  24123-4 0  9993
2 39444  97.5600 243.8402 0057967 182.3242 177.7711 14.81958911309136
UWE-3
1 39446U 13066AG  19231.88732593 +.00000114 +00000-0 +21873-4 0  9994
2 39446 097.5826 233.7503 0069017 216.1073 143.5468 14.78408901307868
SPROUT
1 39770U 14029E   19232.53295779  .00000357  00000-0  45625-4 0  9997
2 39770  97.8877 335.4288 0007683 237.3346 122.7155 14.87390317284177
UNISAT 6
1 40012U 14033C   19231.78986744  .00000101  00000-0  22571-4 0  9990
2 40012  97.7496  95.7018 0056845 257.3556 102.1293 14.73996002277838
DUCHIFAT 1
1 40021U 14033M   19231.77016730  .00000097  00000-0  15768-4 0  9992
2 40021  97.9226 156.5689 0012150 199.4784 160.5971 14.90660663280791
QB50P1
1 40025U 14033R   19232.33290724  .00000174  00000-0  24473-4 0  9995
2 40025  97.9034 151.9127 0011600 207.9192 152.1403 14.88967048280640
CHUBUSAT 1
1 40300U 14070C   19232.24339951  .00000393  00000-0  20064-4 0  9993
2 40300  97.3252 304.8401 0019237 191.8287 247.5635 15.22134708265531
NUDT-PHONESAT
1 40900U 15049B   19232.39749539  .00001171  00000-0  52871-4 0  9995
2 40900  97.4372 241.1192 0011924 332.7404 134.6570 15.22940279217206
ZDPS 2A
1 40901U 15049C   19232.37825251  .00000285  00000-0  17444-4 0  9992
2 40901  97.4597 237.2972 0013257 352.0852 116.3862 15.17787074216746
ZDPS 2B
1 40902U 15049D   19232.54392897  .00000749  00000-0  40540-4 0  9995
2 40902  97.4549 234.9115 0013095 349.0762 126.4991 15.17626661216742
XW-2A
1 40903U 15049E   19232.40489766  .00001075  00000-0  27204-4 0  9998
2 40903  97.3330 275.5113 0011738 279.0852 177.8185 15.41998956219916
KAITUO 1A
1 40904U 15049F   19232.47475579  .00000579  00000-0  34098-4 0  9990
2 40904  97.4677 233.4117 0014495 357.1850 155.4259 15.15401170216502
OBJECT G
1 40905U 15049G   19232.39344916  .00000448  00000-0  27984-4 0  9993
2 40905  97.4722 230.8196 0015435 351.7220 117.9198 15.14323820216361
XW-2C
1 40906U 15049H   19232.38813266  .00000454  00000-0  27250-4 0  9995
2 40906  97.4688 233.4315 0014372 348.8232 116.9572 15.15720929216495
XW-2D
1 40907U 15049J   19232.35814147  .00000159  00000-0  11770-4 0  9994
2 40907  97.4665 233.0828 0013642 345.9961 120.9230 15.15909446216503
LILACSAT 2
1 40908U 15049K   19232.52564142  .00000341  00000-0  22459-4 0  9990
2 40908  97.4807 232.0182 0015575 351.2327 123.9534 15.13830661216316
XW-2F
1 40910U 15049M   19232.39239601  .00000657  00000-0  36212-4 0  9999
2 40910  97.4634 235.1995 0014002 338.0818 128.2382 15.17368626216528
XW-2B
1 40911U 15049N   19232.39383554  .00000517  00000-0  30475-4 0  9997
2 40911  97.4687 233.7763 0013721 347.2816 120.4159 15.15842020216407
KAITUO 1B
1 40912U 15049P   19232.39402568  .00000657  00000-0  33960-4 0  9992
2 40912  97.4501 238.9360 0013610 318.8017 148.6774 15.19689080216838
TIANWANG 1C (TW-1C)
1 40926U 15051B   19232.14760608  .00007354  00000-0  10431-3 0  9993
2 40926  97.1310 278.2656 0009753 134.2827 289.2549 15.56688470219877
